| time (UTC) | temp C | wind direction | speed KPH | gust KPH | rain 1hr cm | rain 24hr cm | rain mn cm | humidity % | barometer mb |
| 20260906222544 | 27 | 216 | 1.6 | 6.4 | 0.00 | 0.00 | 0.00 | 37 | 1018.6 |
| 20260906222044 | 27 | 0 | 1.6 | 4.8 | 0.00 | 0.00 | 0.00 | 37 | 1018.6 |
| 20260906221600 | 27 | 187 | 0.0 | 4.8 | 0.00 | 0.00 | 0.00 | 38 | 1018.6 |
| 20260906221044 | 27 | 0 | 1.6 | 8.0 | 0.00 | 0.00 | 0.00 | 35 | 1018.7 |
| 20260906220543 | 28 | 172 | 0.0 | 8.0 | 0.00 | 0.00 | 0.00 | 36 | 1018.8 |
| 20260906220056 | 27 | 172 | 0.0 | 4.8 | 0.00 | 0.00 | 0.00 | 36 | 1018.9 |
| 20260906215542 | 28 | 0 | 0.0 | 4.8 | 0.00 | 0.00 | 0.00 | 36 | 1018.9 |
| 20260906215043 | 28 | 0 | 0.0 | 4.8 | 0.00 | 0.00 | 0.00 | 34 | 1018.9 |
| 20260906214557 | 28 | 41 | 1.6 | 4.8 | 0.00 | 0.00 | 0.00 | 35 | 1019.0 |
| 20260906214045 | 27 | 0 | 0.0 | 6.4 | 0.00 | 0.00 | 0.00 | 35 | 1019.1 |
| 20260906213544 | 28 | 48 | 3.2 | 6.4 | 0.00 | 0.00 | 0.00 | 35 | 1019.1 |
| 20260906213058 | 28 | 57 | 3.2 | 6.4 | 0.00 | 0.00 | 0.00 | 36 | 1019.1 |
| 20260906212542 | 28 | 0 | 0.0 | 6.4 | 0.00 | 0.00 | 0.00 | 35 | 1019.3 |
| 20260906212045 | 28 | 0 | 0.0 | 8.0 | 0.00 | 0.00 | 0.00 | 34 | 1019.3 |
| 20260906211604 | 28 | 0 | 1.6 | 8.0 | 0.00 | 0.00 | 0.00 | 34 | 1019.3 |
| 20260906211043 | 28 | 134 | 1.6 | 8.0 | 0.00 | 0.00 | 0.00 | 36 | 1019.4 |
| 20260906210546 | 27 | 101 | 1.6 | 6.4 | 0.00 | 0.00 | 0.00 | 36 | 1019.4 |
| 20260906210106 | 27 | 108 | 1.6 | 4.8 | 0.00 | 0.00 | 0.00 | 35 | 1019.6 |
| 20260906205542 | 28 | 107 | 1.6 | 4.8 | 0.00 | 0.00 | 0.00 | 34 | 1019.7 |
| 20260906205042 | 27 | 107 | 1.6 | 4.8 | 0.00 | 0.00 | 0.00 | 36 | 1019.7 |
| 20260906204609 | 27 | 0 | 0.0 | 9.7 | 0.00 | 0.00 | 0.00 | 35 | 1019.7 |
| 20260906204043 | 27 | 0 | 1.6 | 9.7 | 0.00 | 0.00 | 0.00 | 34 | 1019.9 |
| 20260906203544 | 27 | 104 | 3.2 | 9.7 | 0.00 | 0.00 | 0.00 | 35 | 1019.7 |
| 20260906203057 | 28 | 121 | 3.2 | 11.3 | 0.00 | 0.00 | 0.00 | 35 | 1019.8 |
| 20260906202542 | 28 | 82 | 4.8 | 11.3 | 0.00 | 0.00 | 0.00 | 34 | 1019.9 |
| 20260906202042 | 28 | 90 | 1.6 | 8.0 | 0.00 | 0.00 | 0.00 | 33 | 1019.9 |
| 20260906201606 | 28 | 73 | 1.6 | 12.9 | 0.00 | 0.00 | 0.00 | 31 | 1020.0 |
| 20260906201043 | 28 | 0 | 1.6 | 14.5 | 0.00 | 0.00 | 0.00 | 31 | 1020.0 |
| 20260906200544 | 28 | 74 | 6.4 | 14.5 | 0.00 | 0.00 | 0.00 | 29 | 1019.9 |
| 20260906200103 | 29 | 120 | 6.4 | 12.9 | 0.00 | 0.00 | 0.00 | 28 | 1019.9 |
| 20260906195543 | 30 | 74 | 3.2 | 12.9 | 0.00 | 0.00 | 0.00 | 31 | 1020.0 |
| 20260906195045 | 30 | 15 | 4.8 | 12.9 | 0.00 | 0.00 | 0.00 | 31 | 1020.0 |
| 20260906194601 | 29 | 63 | 3.2 | 12.9 | 0.00 | 0.00 | 0.00 | 31 | 1020.0 |
| 20260906194040 | 28 | 42 | 3.2 | 12.9 | 0.00 | 0.00 | 0.00 | 31 | 1019.9 |
| 20260906193543 | 28 | 30 | 3.2 | 12.9 | 0.00 | 0.00 | 0.00 | 32 | 1020.0 |
| 20260906193055 | 28 | 57 | 3.2 | 12.9 | 0.00 | 0.00 | 0.00 | 33 | 1020.1 |
| 20260906192541 | 28 | 64 | 4.8 | 14.5 | 0.00 | 0.00 | 0.00 | 31 | 1020.2 |
| 20260906192041 | 28 | 89 | 4.8 | 14.5 | 0.00 | 0.00 | 0.00 | 34 | 1020.3 |
| 20260906191554 | 28 | 107 | 4.8 | 12.9 | 0.00 | 0.00 | 0.00 | 37 | 1020.4 |
| 20260906191041 | 28 | 71 | 8.0 | 16.1 | 0.00 | 0.00 | 0.00 | 38 | 1020.6 |
| 20260906190544 | 28 | 58 | 4.8 | 16.1 | 0.00 | 0.00 | 0.00 | 36 | 1020.7 |
| 20260906185546 | 28 | 37 | 4.8 | 12.9 | 0.00 | 0.00 | 0.00 | 40 | 1020.8 |
| 20260906185041 | 27 | 350 | 3.2 | 14.5 | 0.00 | 0.00 | 0.00 | 40 | 1020.8 |
| 20260906184600 | 28 | 65 | 8.0 | 14.5 | 0.00 | 0.00 | 0.00 | 39 | 1020.9 |
| 20260906184040 | 28 | 96 | 4.8 | 12.9 | 0.00 | 0.00 | 0.00 | 38 | 1021.0 |
| 20260906183540 | 27 | 110 | 3.2 | 11.3 | 0.00 | 0.00 | 0.00 | 39 | 1021.1 |
| 20260906183054 | 27 | 78 | 3.2 | 12.9 | 0.00 | 0.00 | 0.00 | 41 | 1021.2 |
| 20260906182542 | 27 | 57 | 6.4 | 14.5 | 0.00 | 0.00 | 0.00 | 40 | 1021.2 |
| 20260906182041 | 27 | 67 | 3.2 | 14.5 | 0.00 | 0.00 | 0.00 | 41 | 1021.2 |
| 20260906181557 | 27 | 0 | 4.8 | 14.5 | 0.00 | 0.00 | 0.00 | 41 | 1021.5 |
| 20260906181041 | 27 | 74 | 3.2 | 9.7 | 0.00 | 0.00 | 0.00 | 40 | 1021.5 |
| 20260906180541 | 27 | 340 | 0.0 | 9.7 | 0.00 | 0.00 | 0.00 | 40 | 1021.5 |
| 20260906180105 | 27 | 117 | 1.6 | 9.7 | 0.00 | 0.00 | 0.00 | 40 | 1021.6 |
| 20260906175544 | 27 | 116 | 3.2 | 11.3 | 0.00 | 0.00 | 0.00 | 39 | 1021.7 |
| 20260906175041 | 26 | 0 | 3.2 | 11.3 | 0.00 | 0.00 | 0.00 | 37 | 1021.8 |
| 20260906174607 | 26 | 77 | 1.6 | 8.0 | 0.00 | 0.00 | 0.00 | 37 | 1021.9 |
| 20260906174044 | 27 | 79 | 3.2 | 11.3 | 0.00 | 0.00 | 0.00 | 36 | 1021.9 |
| 20260906173540 | 27 | 171 | 4.8 | 12.9 | 0.00 | 0.00 | 0.00 | 38 | 1022.1 |
| 20260906173059 | 26 | 163 | 3.2 | 14.5 | 0.00 | 0.00 | 0.00 | 41 | 1022.2 |
| 20260906172543 | 26 | 117 | 4.8 | 14.5 | 0.00 | 0.00 | 0.00 | 39 | 1022.1 |
| 20260906172041 | 25 | 164 | 4.8 | 12.9 | 0.00 | 0.00 | 0.00 | 42 | 1022.2 |
| 20260906171558 | 25 | 0 | 3.2 | 9.7 | 0.00 | 0.00 | 0.00 | 44 | 1022.3 |
| 20260906171044 | 25 | 104 | 1.6 | 9.7 | 0.00 | 0.00 | 0.00 | 41 | 1022.3 |
| 20260906170544 | 25 | 96 | 3.2 | 11.3 | 0.00 | 0.00 | 0.00 | 42 | 1022.4 |
| 20260906170057 | 25 | 63 | 3.2 | 11.3 | 0.00 | 0.00 | 0.00 | 44 | 1022.3 |
| 20260906165541 | 25 | 123 | 3.2 | 12.9 | 0.00 | 0.00 | 0.00 | 41 | 1022.3 |
| 20260906165043 | 24 | 117 | 0.0 | 12.9 | 0.00 | 0.00 | 0.00 | 48 | 1022.5 |
| 20260906164554 | 24 | 144 | 3.2 | 11.3 | 0.00 | 0.00 | 0.00 | 50 | 1022.5 |
| 20260906164043 | 24 | 136 | 3.2 | 11.3 | 0.00 | 0.00 | 0.00 | 48 | 1022.5 |
| 20260906163542 | 24 | 134 | 3.2 | 9.7 | 0.00 | 0.00 | 0.00 | 47 | 1022.4 |
| 20260906163100 | 25 | 151 | 3.2 | 9.7 | 0.00 | 0.00 | 0.00 | 47 | 1022.5 |
| 20260906162543 | 24 | 88 | 3.2 | 8.0 | 0.00 | 0.00 | 0.00 | 50 | 1022.5 |
| 20260906162043 | 23 | 81 | 1.6 | 6.4 | 0.00 | 0.00 | 0.00 | 50 | 1022.5 |
| 20260906161602 | 23 | 109 | 0.0 | 6.4 | 0.00 | 0.00 | 0.00 | 52 | 1022.6 |
| 20260906161042 | 23 | 0 | 0.0 | 6.4 | 0.00 | 0.00 | 0.00 | 49 | 1022.6 |
| 20260906160542 | 23 | 111 | 1.6 | 6.4 | 0.00 | 0.00 | 0.00 | 49 | 1022.6 |
| 20260906160100 | 23 | 23 | 0.0 | 6.4 | 0.00 | 0.00 | 0.00 | 49 | 1022.5 |
| 20260906155543 | 22 | 0 | 1.6 | 6.4 | 0.00 | 0.00 | 0.00 | 49 | 1022.5 |
| 20260906155045 | 22 | 74 | 1.6 | 11.3 | 0.00 | 0.00 | 0.00 | 50 | 1022.5 |
| 20260906154603 | 22 | 0 | 3.2 | 11.3 | 0.00 | 0.00 | 0.00 | 53 | 1022.5 |
| 20260906154042 | 22 | 132 | 1.6 | 6.4 | 0.00 | 0.00 | 0.00 | 56 | 1022.6 |
| 20260906153545 | 22 | 133 | 3.2 | 6.4 | 0.00 | 0.00 | 0.00 | 59 | 1022.5 |
| 20260906153100 | 21 | 0 | 1.6 | 8.0 | 0.00 | 0.00 | 0.00 | 61 | 1022.6 |
| 20260906152542 | 21 | 113 | 1.6 | 8.0 | 0.00 | 0.00 | 0.00 | 62 | 1022.6 |
| 20260906152042 | 21 | 136 | 1.6 | 8.0 | 0.00 | 0.00 | 0.00 | 62 | 1022.6 |
| 20260906151554 | 21 | 156 | 1.6 | 8.0 | 0.00 | 0.00 | 0.00 | 64 | 1022.7 |
| 20260906151044 | 21 | 160 | 3.2 | 8.0 | 0.00 | 0.00 | 0.00 | 66 | 1022.7 |
| 20260906150539 | 20 | 161 | 1.6 | 8.0 | 0.00 | 0.00 | 0.00 | 66 | 1022.7 |
| 20260906145546 | 21 | 144 | 1.6 | 8.0 | 0.00 | 0.00 | 0.00 | 65 | 1022.8 |
| 20260906145043 | 20 | 138 | 3.2 | 8.0 | 0.00 | 0.00 | 0.00 | 66 | 1023.0 |
| 20260906144600 | 20 | 0 | 0.0 | 0.0 | 0.00 | 0.00 | 0.00 | 68 | 1022.8 |
| 20260906144042 | 19 | 0 | 0.0 | 4.8 | 0.00 | 0.00 | 0.00 | 71 | 1022.8 |
| 20260906143543 | 19 | 0 | 0.0 | 4.8 | 0.00 | 0.00 | 0.00 | 69 | 1022.8 |
| 20260906143109 | 19 | 95 | 0.0 | 4.8 | 0.00 | 0.00 | 0.00 | 69 | 1022.9 |
| 20260906142542 | 20 | 0 | 0.0 | 6.4 | 0.00 | 0.00 | 0.00 | 68 | 1022.7 |
| 20260906142040 | 20 | 93 | 1.6 | 6.4 | 0.00 | 0.00 | 0.00 | 66 | 1022.7 |
| 20260906141600 | 20 | 82 | 1.6 | 6.4 | 0.00 | 0.00 | 0.00 | 69 | 1022.7 |
| 20260906141042 | 19 | 87 | 1.6 | 6.4 | 0.00 | 0.00 | 0.00 | 69 | 1022.5 |
| 20260906140542 | 19 | 86 | 1.6 | 4.8 | 0.00 | 0.00 | 0.00 | 69 | 1022.6 |
| 20260906140058 | 18 | 286 | 0.0 | 3.2 | 0.00 | 0.00 | 0.00 | 69 | 1022.5 |
| 20260906135542 | 18 | 0 | 0.0 | 4.8 | 0.00 | 0.00 | 0.00 | 62 | 1022.5 |
| 20260906135038 | 18 | 284 | 1.6 | 4.8 | 0.00 | 0.00 | 0.00 | 64 | 1022.5 |
| 20260906134558 | 17 | 284 | 1.6 | 4.8 | 0.00 | 0.00 | 0.00 | 62 | 1022.4 |
| 20260906134043 | 17 | 0 | 0.0 | 4.8 | 0.00 | 0.00 | 0.00 | 63 | 1022.4 |
| 20260906133540 | 17 | 281 | 1.6 | 4.8 | 0.00 | 0.00 | 0.00 | 62 | 1022.5 |
| 20260906133105 | 17 | 280 | 0.0 | 6.4 | 0.00 | 0.00 | 0.00 | 63 | 1022.6 |
| 20260906132541 | 16 | 0 | 1.6 | 6.4 | 0.00 | 0.00 | 0.00 | 62 | 1022.7 |
| 20260906132040 | 16 | 280 | 3.2 | 6.4 | 0.00 | 0.00 | 0.00 | 63 | 1022.6 |
| 20260906131605 | 16 | 312 | 3.2 | 6.4 | 0.00 | 0.00 | 0.00 | 63 | 1022.6 |
| 20260906131041 | 16 | 313 | 1.6 | 6.4 | 0.00 | 0.00 | 0.00 | 67 | 1022.6 |
| 20260906130544 | 16 | 313 | 1.6 | 4.8 | 0.00 | 0.00 | 0.00 | 67 | 1022.4 |
| 20260906130059 | 16 | 313 | 1.6 | 4.8 | 0.00 | 0.00 | 0.00 | 66 | 1022.4 |
| 20260906125541 | 16 | 0 | 0.0 | 4.8 | 0.00 | 0.00 | 0.00 | 64 | 1022.5 |
| 20260906125041 | 16 | 0 | 1.6 | 9.7 | 0.00 | 0.00 | 0.00 | 62 | 1022.4 |
| 20260906124600 | 16 | 314 | 3.2 | 9.7 | 0.00 | 0.00 | 0.00 | 60 | 1022.3 |
| 20260906124041 | 16 | 287 | 3.2 | 9.7 | 0.00 | 0.00 | 0.00 | 61 | 1022.3 |
| 20260906123541 | 16 | 293 | 4.8 | 8.0 | 0.00 | 0.00 | 0.00 | 60 | 1022.3 |
| 20260906123104 | 16 | 296 | 3.2 | 8.0 | 0.00 | 0.00 | 0.00 | 60 | 1022.2 |
| 20260906122541 | 16 | 301 | 1.6 | 9.7 | 0.00 | 0.00 | 0.00 | 60 | 1022.1 |
| 20260906122041 | 16 | 280 | 3.2 | 9.7 | 0.00 | 0.00 | 0.00 | 59 | 1022.2 |
| 20260906121556 | 16 | 311 | 3.2 | 9.7 | 0.00 | 0.00 | 0.00 | 59 | 1022.3 |
| 20260906121040 | 16 | 293 | 3.2 | 9.7 | 0.00 | 0.00 | 0.00 | 59 | 1022.2 |
| 20260906120541 | 16 | 282 | 3.2 | 8.0 | 0.00 | 0.00 | 0.00 | 58 | 1022.2 |
| 20260906120140 | 16 | 329 | 1.6 | 6.4 | 0.00 | 0.00 | 0.00 | 60 | 1022.0 |
| 20260906115541 | 16 | 329 | 3.2 | 11.3 | 0.00 | 0.00 | 0.00 | 60 | 1022.1 |
| 20260906115053 | 16 | 294 | 4.8 | 11.3 | 0.00 | 0.00 | 0.00 | 60 | 1022.1 |
| 20260906114607 | 16 | 304 | 1.6 | 8.0 | 0.00 | 0.00 | 0.00 | 60 | 1022.0 |
| 20260906114040 | 16 | 304 | 3.2 | 8.0 | 0.00 | 0.00 | 0.00 | 59 | 1022.1 |
| 20260906113540 | 16 | 288 | 3.2 | 8.0 | 0.00 | 0.00 | 0.00 | 60 | 1022.1 |
| 20260906113055 | 16 | 287 | 1.6 | 6.4 | 0.00 | 0.00 | 0.00 | 59 | 1022.1 |
| 20260906112542 | 16 | 287 | 1.6 | 8.0 | 0.00 | 0.00 | 0.00 | 58 | 1022.1 |
| 20260906112043 | 16 | 287 | 3.2 | 9.7 | 0.00 | 0.00 | 0.00 | 58 | 1022.1 |
| 20260906111603 | 16 | 0 | 3.2 | 9.7 | 0.00 | 0.00 | 0.00 | 58 | 1022.0 |
| 20260906111041 | 16 | 284 | 3.2 | 6.4 | 0.00 | 0.00 | 0.00 | 58 | 1021.9 |
| 20260906110544 | 16 | 286 | 3.2 | 6.4 | 0.00 | 0.00 | 0.00 | 58 | 1022.0 |
| 20260906110049 | 16 | 313 | 1.6 | 6.4 | 0.00 | 0.00 | 0.00 | 58 | 1022.1 |
| 20260906105541 | 16 | 313 | 3.2 | 6.4 | 0.00 | 0.00 | 0.00 | 56 | 1022.0 |
| 20260906105043 | 16 | 323 | 1.6 | 6.4 | 0.00 | 0.00 | 0.00 | 56 | 1022.1 |
| 20260906104600 | 16 | 321 | 3.2 | 6.4 | 0.00 | 0.00 | 0.00 | 56 | 1022.2 |
| 20260906104040 | 16 | 288 | 3.2 | 6.4 | 0.00 | 0.00 | 0.00 | 55 | 1022.2 |
| 20260906103541 | 16 | 268 | 3.2 | 6.4 | 0.00 | 0.00 | 0.00 | 56 | 1022.1 |
| 20260906103057 | 16 | 261 | 1.6 | 4.8 | 0.00 | 0.00 | 0.00 | 55 | 1022.1 |
| 20260906102541 | 16 | 259 | 1.6 | 4.8 | 0.00 | 0.00 | 0.00 | 56 | 1022.2 |
| 20260906102040 | 16 | 259 | 1.6 | 4.8 | 0.00 | 0.00 | 0.00 | 56 | 1022.2 |
| 20260906101558 | 16 | 259 | 1.6 | 4.8 | 0.00 | 0.00 | 0.00 | 57 | 1022.2 |
| 20260906101042 | 16 | 245 | 0.0 | 3.2 | 0.00 | 0.00 | 0.00 | 57 | 1022.3 |
| 20260906100541 | 17 | 0 | 0.0 | 3.2 | 0.00 | 0.00 | 0.00 | 58 | 1022.3 |
| 20260906095541 | 17 | 0 | 0.0 | 1.6 | 0.00 | 0.00 | 0.00 | 59 | 1022.2 |
| 20260906095041 | 17 | 0 | 0.0 | 0.0 | 0.00 | 0.00 | 0.00 | 58 | 1022.2 |
| 20260906094559 | 17 | 0 | 0.0 | 0.0 | 0.00 | 0.00 | 0.00 | 57 | 1022.2 |
| 20260906094040 | 17 | 0 | 0.0 | 4.8 | 0.00 | 0.00 | 0.00 | 56 | 1022.1 |
| 20260906093541 | 17 | 0 | 0.0 | 4.8 | 0.00 | 0.00 | 0.00 | 55 | 1022.2 |
| 20260906093054 | 17 | 0 | 1.6 | 6.4 | 0.00 | 0.00 | 0.00 | 55 | 1022.1 |
| 20260906092540 | 17 | 0 | 1.6 | 6.4 | 0.00 | 0.00 | 0.00 | 54 | 1022.1 |
| 20260906092041 | 17 | 247 | 1.6 | 4.8 | 0.00 | 0.00 | 0.00 | 53 | 1021.9 |
| 20260906091601 | 17 | 0 | 0.0 | 3.2 | 0.00 | 0.00 | 0.00 | 52 | 1022.0 |
| 20260906091041 | 18 | 48 | 0.0 | 1.6 | 0.00 | 0.00 | 0.00 | 49 | 1021.8 |
| 20260906090541 | 18 | 0 | 0.0 | 1.6 | 0.00 | 0.00 | 0.00 | 48 | 1021.6 |
| 20260906090105 | 18 | 0 | 0.0 | 0.0 | 0.00 | 0.00 | 0.00 | 48 | 1021.5 |
| 20260906085542 | 19 | 0 | 0.0 | 0.0 | 0.00 | 0.00 | 0.00 | 48 | 1021.6 |
| 20260906085040 | 19 | 0 | 0.0 | 4.8 | 0.00 | 0.00 | 0.00 | 48 | 1021.6 |
| 20260906084617 | 20 | 0 | 0.0 | 4.8 | 0.00 | 0.00 | 0.00 | 47 | 1021.5 |
| 20260906084040 | 20 | 0 | 0.0 | 1.6 | 0.00 | 0.00 | 0.00 | 45 | 1021.4 |
| 20260906083540 | 20 | 0 | 0.0 | 8.0 | 0.00 | 0.00 | 0.00 | 44 | 1021.3 |
| 20260906083054 | 20 | 0 | 3.2 | 11.3 | 0.00 | 0.00 | 0.00 | 43 | 1021.3 |
| 20260906082540 | 20 | 0 | 3.2 | 14.5 | 0.00 | 0.00 | 0.00 | 43 | 1021.3 |
| 20260906082040 | 20 | 310 | 3.2 | 14.5 | 0.00 | 0.00 | 0.00 | 43 | 1021.3 |
| 20260906081601 | 20 | 299 | 8.0 | 16.1 | 0.00 | 0.00 | 0.00 | 43 | 1021.2 |
| 20260906081041 | 20 | 286 | 6.4 | 16.1 | 0.00 | 0.00 | 0.00 | 43 | 1021.3 |
| 20260906080541 | 20 | 300 | 8.0 | 16.1 | 0.00 | 0.00 | 0.00 | 42 | 1021.3 |
| 20260906075542 | 20 | 286 | 4.8 | 14.5 | 0.00 | 0.00 | 0.00 | 42 | 1021.5 |
| 20260906075043 | 20 | 314 | 6.4 | 14.5 | 0.00 | 0.00 | 0.00 | 42 | 1021.5 |
| 20260906074602 | 20 | 295 | 1.6 | 12.9 | 0.00 | 0.00 | 0.00 | 42 | 1021.5 |
| 20260906074040 | 21 | 294 | 4.8 | 12.9 | 0.00 | 0.00 | 0.00 | 41 | 1021.5 |
| 20260906073542 | 21 | 290 | 4.8 | 9.7 | 0.00 | 0.00 | 0.00 | 41 | 1021.5 |
| 20260906073052 | 21 | 311 | 3.2 | 6.4 | 0.00 | 0.00 | 0.00 | 41 | 1021.6 |
| 20260906072540 | 21 | 315 | 3.2 | 4.8 | 0.00 | 0.00 | 0.00 | 41 | 1021.7 |
| 20260906072042 | 21 | 315 | 1.6 | 6.4 | 0.00 | 0.00 | 0.00 | 41 | 1021.7 |
| 20260906071556 | 21 | 315 | 3.2 | 6.4 | 0.00 | 0.00 | 0.00 | 41 | 1021.6 |
| 20260906071041 | 21 | 315 | 1.6 | 6.4 | 0.00 | 0.00 | 0.00 | 40 | 1021.5 |
| 20260906070540 | 21 | 315 | 1.6 | 6.4 | 0.00 | 0.00 | 0.00 | 40 | 1021.5 |
| 20260906070055 | 21 | 315 | 1.6 | 4.8 | 0.00 | 0.00 | 0.00 | 40 | 1021.5 |
| 20260906065540 | 21 | 0 | 0.0 | 4.8 | 0.00 | 0.00 | 0.00 | 40 | 1021.5 |
| 20260906065039 | 22 | 0 | 0.0 | 4.8 | 0.00 | 0.00 | 0.00 | 40 | 1021.5 |
| 20260906064557 | 22 | 313 | 1.6 | 4.8 | 0.00 | 0.00 | 0.00 | 39 | 1021.5 |
| 20260906064039 | 22 | 0 | 0.0 | 4.8 | 0.00 | 0.00 | 0.00 | 38 | 1021.5 |
| 20260906063544 | 22 | 0 | 0.0 | 4.8 | 0.00 | 0.00 | 0.00 | 38 | 1021.4 |
| 20260906063101 | 22 | 0 | 1.6 | 4.8 | 0.00 | 0.00 | 0.00 | 38 | 1021.5 |
| 20260906062540 | 22 | 311 | 0.0 | 4.8 | 0.00 | 0.00 | 0.00 | 37 | 1021.6 |
| 20260906062039 | 22 | 0 | 0.0 | 6.4 | 0.00 | 0.00 | 0.00 | 37 | 1021.7 |
| 20260906061557 | 22 | 307 | 1.6 | 9.7 | 0.00 | 0.00 | 0.00 | 37 | 1021.5 |
| 20260906061040 | 22 | 304 | 3.2 | 9.7 | 0.00 | 0.00 | 0.00 | 37 | 1021.5 |
| 20260906060541 | 22 | 260 | 1.6 | 4.8 | 0.00 | 0.00 | 0.00 | 39 | 1021.5 |
| 20260906060058 | 22 | 260 | 1.6 | 3.2 | 0.00 | 0.00 | 0.00 | 39 | 1021.5 |
| 20260906055541 | 22 | 0 | 0.0 | 0.0 | 0.00 | 0.00 | 0.00 | 39 | 1021.7 |
| 20260906055040 | 22 | 0 | 0.0 | 6.4 | 0.00 | 0.00 | 0.00 | 39 | 1021.8 |
| 20260906054627 | 23 | 0 | 0.0 | 9.7 | 0.00 | 0.00 | 0.00 | 38 | 1021.9 |
| 20260906054044 | 23 | 0 | 3.2 | 11.3 | 0.00 | 0.00 | 0.00 | 37 | 1022.0 |
| 20260906053544 | 23 | 163 | 6.4 | 11.3 | 0.00 | 0.00 | 0.00 | 36 | 1022.1 |
| 20260906053059 | 23 | 169 | 4.8 | 8.0 | 0.00 | 0.00 | 0.00 | 37 | 1022.2 |
| 20260906052544 | 23 | 217 | 3.2 | 9.7 | 0.00 | 0.00 | 0.00 | 37 | 1022.2 |
| 20260906052045 | 23 | 177 | 3.2 | 9.7 | 0.00 | 0.00 | 0.00 | 37 | 1022.2 |
| 20260906051556 | 23 | 203 | 1.6 | 3.2 | 0.00 | 0.00 | 0.00 | 36 | 1022.1 |
| 20260906051043 | 23 | 202 | 0.0 | 3.2 | 0.00 | 0.00 | 0.00 | 36 | 1022.0 |
| 20260906050543 | 23 | 202 | 0.0 | 0.0 | 0.00 | 0.00 | 0.00 | 37 | 1021.9 |
| 20260906050105 | 23 | 0 | 0.0 | 3.2 | 0.00 | 0.00 | 0.00 | 36 | 1021.8 |
| 20260906045543 | 23 | 0 | 0.0 | 3.2 | 0.00 | 0.00 | 0.00 | 36 | 1021.7 |
| 20260906045041 | 23 | 0 | 0.0 | 3.2 | 0.00 | 0.00 | 0.00 | 36 | 1021.5 |
| 20260906044603 | 23 | 0 | 0.0 | 6.4 | 0.00 | 0.00 | 0.00 | 35 | 1021.5 |
| 20260906044044 | 23 | 0 | 0.0 | 6.4 | 0.00 | 0.00 | 0.00 | 35 | 1021.6 |
| 20260906043544 | 23 | 202 | 1.6 | 6.4 | 0.00 | 0.00 | 0.00 | 35 | 1021.6 |
| 20260906043055 | 23 | 0 | 0.0 | 0.0 | 0.00 | 0.00 | 0.00 | 36 | 1021.4 |
| 20260906042540 | 23 | 0 | 0.0 | 1.6 | 0.00 | 0.00 | 0.00 | 36 | 1021.2 |
| 20260906042044 | 23 | 0 | 0.0 | 3.2 | 0.00 | 0.00 | 0.00 | 35 | 1021.1 |
| 20260906041555 | 23 | 0 | 0.0 | 3.2 | 0.00 | 0.00 | 0.00 | 34 | 1021.2 |
| 20260906041042 | 24 | 292 | 0.0 | 6.4 | 0.00 | 0.00 | 0.00 | 34 | 1021.4 |
| 20260906040543 | 24 | 0 | 1.6 | 6.4 | 0.00 | 0.00 | 0.00 | 34 | 1021.4 |
| 20260906040109 | 23 | 251 | 1.6 | 6.4 | 0.00 | 0.00 | 0.00 | 35 | 1021.5 |
| 20260906035543 | 23 | 251 | 1.6 | 6.4 | 0.00 | 0.00 | 0.00 | 35 | 1021.5 |
| 20260906035044 | 23 | 43 | 0.0 | 3.2 | 0.00 | 0.00 | 0.00 | 34 | 1021.1 |
| 20260906034557 | 24 | 43 | 0.0 | 4.8 | 0.00 | 0.00 | 0.00 | 34 | 1021.0 |
| 20260906034043 | 24 | 43 | 0.0 | 8.0 | 0.00 | 0.00 | 0.00 | 33 | 1020.9 |
| 20260906033540 | 25 | 58 | 1.6 | 12.9 | 0.00 | 0.00 | 0.00 | 32 | 1020.7 |
| 20260906033101 | 25 | 49 | 4.8 | 12.9 | 0.00 | 0.00 | 0.00 | 31 | 1020.6 |
| 20260906032543 | 25 | 80 | 3.2 | 14.5 | 0.00 | 0.00 | 0.00 | 30 | 1020.5 |
| 20260906032043 | 25 | 86 | 1.6 | 17.7 | 0.00 | 0.00 | 0.00 | 30 | 1020.5 |
| 20260906031615 | 25 | 279 | 8.0 | 19.3 | 0.00 | 0.00 | 0.00 | 29 | 1020.4 |
| 20260906031044 | 25 | 286 | 11.3 | 19.3 | 0.00 | 0.00 | 0.00 | 30 | 1020.2 |
| 20260906030543 | 25 | 308 | 8.0 | 17.7 | 0.00 | 0.00 | 0.00 | 29 | 1020.2 |
| 20260906030059 | 25 | 286 | 9.7 | 17.7 | 0.00 | 0.00 | 0.00 | 30 | 1020.1 |
| 20260906025544 | 25 | 304 | 9.7 | 17.7 | 0.00 | 0.00 | 0.00 | 30 | 1020.0 |
| 20260906025044 | 25 | 264 | 9.7 | 16.1 | 0.00 | 0.00 | 0.00 | 29 | 1019.9 |
| 20260906024605 | 25 | 297 | 9.7 | 16.1 | 0.00 | 0.00 | 0.00 | 29 | 1019.9 |
| 20260906024043 | 26 | 300 | 9.7 | 16.1 | 0.00 | 0.00 | 0.00 | 29 | 1019.8 |
| 20260906023544 | 26 | 296 | 8.0 | 19.3 | 0.00 | 0.00 | 0.00 | 29 | 1019.9 |
| 20260906023101 | 26 | 298 | 9.7 | 22.5 | 0.00 | 0.00 | 0.00 | 28 | 1019.8 |
| 20260906022540 | 26 | 301 | 11.3 | 22.5 | 0.00 | 0.00 | 0.00 | 28 | 1019.7 |
| 20260906022041 | 26 | 256 | 12.9 | 25.7 | 0.00 | 0.00 | 0.00 | 28 | 1019.5 |
| 20260906021614 | 26 | 248 | 14.5 | 25.7 | 0.00 | 0.00 | 0.00 | 28 | 1019.5 |
| 20260906021040 | 27 | 292 | 8.0 | 22.5 | 0.00 | 0.00 | 0.00 | 28 | 1019.5 |
| 20260906020540 | 27 | 286 | 9.7 | 25.7 | 0.00 | 0.00 | 0.00 | 28 | 1019.6 |
| 20260906015539 | 27 | 272 | 11.3 | 20.9 | 0.00 | 0.00 | 0.00 | 28 | 1019.9 |
| 20260906015040 | 27 | 284 | 6.4 | 22.5 | 0.00 | 0.00 | 0.00 | 27 | 1019.9 |
| 20260906014556 | 27 | 213 | 8.0 | 22.5 | 0.00 | 0.00 | 0.00 | 27 | 1019.8 |
| 20260906014043 | 27 | 319 | 9.7 | 22.5 | 0.00 | 0.00 | 0.00 | 27 | 1019.6 |
| 20260906013542 | 27 | 292 | 9.7 | 22.5 | 0.00 | 0.00 | 0.00 | 27 | 1019.5 |
| 20260906013105 | 27 | 280 | 12.9 | 27.4 | 0.00 | 0.00 | 0.00 | 27 | 1019.5 |
| 20260906012539 | 27 | 278 | 14.5 | 27.4 | 0.00 | 0.00 | 0.00 | 27 | 1019.4 |
| 20260906012039 | 27 | 302 | 11.3 | 20.9 | 0.00 | 0.00 | 0.00 | 27 | 1019.4 |
| 20260906011604 | 27 | 277 | 11.3 | 20.9 | 0.00 | 0.00 | 0.00 | 28 | 1019.3 |
| 20260906011043 | 27 | 256 | 9.7 | 22.5 | 0.00 | 0.00 | 0.00 | 28 | 1019.5 |
| 20260906010540 | 27 | 286 | 12.9 | 22.5 | 0.00 | 0.00 | 0.00 | 28 | 1019.6 |
| 20260906010058 | 27 | 280 | 14.5 | 24.1 | 0.00 | 0.00 | 0.00 | 27 | 1019.5 |
| 20260906005541 | 27 | 302 | 9.7 | 24.1 | 0.00 | 0.00 | 0.00 | 27 | 1019.6 |
| 20260906005041 | 27 | 298 | 11.3 | 24.1 | 0.00 | 0.00 | 0.00 | 27 | 1019.6 |
| 20260906004606 | 27 | 305 | 12.9 | 24.1 | 0.00 | 0.00 | 0.00 | 26 | 1019.7 |
| 20260906004041 | 28 | 276 | 9.7 | 24.1 | 0.00 | 0.00 | 0.00 | 26 | 1019.7 |
| 20260906003541 | 28 | 305 | 9.7 | 24.1 | 0.00 | 0.00 | 0.00 | 26 | 1019.7 |
| 20260906003059 | 28 | 296 | 9.7 | 19.3 | 0.00 | 0.00 | 0.00 | 26 | 1019.8 |
| 20260906002539 | 28 | 261 | 6.4 | 27.4 | 0.00 | 0.00 | 0.00 | 26 | 1019.8 |
| 20260906002044 | 28 | 243 | 11.3 | 27.4 | 0.00 | 0.00 | 0.00 | 26 | 1019.8 |
| 20260906001557 | 28 | 320 | 9.7 | 27.4 | 0.00 | 0.00 | 0.00 | 26 | 1019.9 |
| 20260906001040 | 28 | 240 | 9.7 | 27.4 | 0.00 | 0.00 | 0.00 | 26 | 1019.9 |
| 20260906000542 | 28 | 311 | 11.3 | 27.4 | 0.00 | 0.00 | 0.00 | 26 | 1019.9 |
| 20260906000105 | 29 | 290 | 12.9 | 27.4 | 0.00 | 0.00 | 0.00 | 24 | 1019.9 |
| 20260905235540 | 30 | 311 | 8.0 | 22.5 | 0.00 | 0.00 | 0.00 | 22 | 1019.8 |
| 20260905235039 | 30 | 360 | 4.8 | 12.9 | 0.00 | 0.00 | 0.00 | 23 | 1019.6 |
| 20260905234605 | 30 | 329 | 1.6 | 11.3 | 0.00 | 0.00 | 0.00 | 22 | 1019.7 |
| 20260905234040 | 30 | 293 | 4.8 | 14.5 | 0.00 | 0.00 | 0.00 | 22 | 1019.7 |
| 20260905233544 | 30 | 296 | 6.4 | 14.5 | 0.00 | 0.00 | 0.00 | 22 | 1019.7 |
| 20260905233057 | 30 | 284 | 4.8 | 11.3 | 0.00 | 0.00 | 0.00 | 21 | 1019.6 |
| 20260905232539 | 30 | 296 | 1.6 | 11.3 | 0.00 | 0.00 | 0.00 | 21 | 1019.6 |
| 20260905232043 | 30 | 306 | 0.0 | 20.9 | 0.00 | 0.00 | 0.00 | 22 | 1019.6 |
| 20260905231557 | 30 | 0 | 0.0 | 20.9 | 0.00 | 0.00 | 0.00 | 22 | 1019.6 |
| 20260905231043 | 30 | 280 | 6.4 | 20.9 | 0.00 | 0.00 | 0.00 | 21 | 1019.6 |
| 20260905230547 | 30 | 235 | 0.0 | 4.8 | 0.00 | 0.00 | 0.00 | 22 | 1019.5 |
| 20260905230103 | 30 | 0 | 0.0 | 3.2 | 0.00 | 0.00 | 0.00 | 21 | 1019.3 |
| 20260905225543 | 30 | 0 | 0.0 | 4.8 | 0.00 | 0.00 | 0.00 | 21 | 1019.4 |
| 20260905225046 | 30 | 82 | 0.0 | 9.7 | 0.00 | 0.00 | 0.00 | 20 | 1019.3 |
| 20260905224557 | 31 | 0 | 0.0 | 9.7 | 0.00 | 0.00 | 0.00 | 20 | 1019.4 |
| 20260905224044 | 31 | 0 | 3.2 | 9.7 | 0.00 | 0.00 | 0.00 | 21 | 1019.3 |
| 20260905223543 | 31 | 0 | 1.6 | 8.0 | 0.00 | 0.00 | 0.00 | 20 | 1019.3 |
| 20260905223101 | 31 | 90 | 0.0 | 9.7 | 0.00 | 0.00 | 0.00 | 21 | 1019.3 |